This is the latest recevied weather packets stored in our database for station/object K8GLX. If no packets are shown the sender has not sent any weather packets the latest 10 day(s).
| Time | Temp. | Humidity | Pressure | Rain* | Wind** | Luminosity | Snow |
|---|---|---|---|---|---|---|---|
| 1777495033 | 8.89° C | 96% | 1008.9 hPa | 0 mm | - | 48 W/m² | - |
| 1777494866 | 8.89° C | 96% | 1009 hPa | 0 mm | - | 57 W/m² | - |
| 1777494552 | 8.89° C | 96% | 1008.8 hPa | 0 mm | - | 58 W/m² | - |
| 1777494266 | 8.89° C | 96% | 1008.8 hPa | 0 mm | - | 86 W/m² | - |
| 1777493832 | 8.89° C | 96% | 1008.9 hPa | 0 mm | - | 85 W/m² | - |
| 1777493666 | 8.89° C | 96% | 1009 hPa | 0 mm | - | 123 W/m² | - |
| 1777493233 | 8.89° C | 95% | 1008.9 hPa | 0 mm | - | 113 W/m² | - |
| 1777492938 | 8.89° C | 95% | 1008.8 hPa | 0 mm | - | 89 W/m² | - |
| 1777492632 | 8.89° C | 95% | 1009.1 hPa | 0 mm | - | 82 W/m² | - |
| 1777492339 | 8.89° C | 94% | 1008.8 hPa | 0 mm | - | 62 W/m² | - |
| 1777492033 | 8.89° C | 94% | 1008.8 hPa | 0 mm | - | 68 W/m² | - |
| 1777491739 | 8.89° C | 93% | 1008.8 hPa | 0 mm | - | 103 W/m² | - |
| 1777491432 | 9.44° C | 94% | 1008.8 hPa | 0 mm | - | 108 W/m² | - |
| 1777491138 | 8.89° C | 94% | 1008.8 hPa | 0 mm | - | 145 W/m² | - |
| 1777490833 | 9.44° C | 93% | 1009 hPa | 0 mm | - | 96 W/m² | - |
| 1777490538 | 9.44° C | 94% | 1009 hPa | 0 mm | - | 110 W/m² | - |
| 1777490233 | 9.44° C | 94% | 1008.8 hPa | 0 mm | - | 127 W/m² | - |
| 1777489938 | 8.89° C | 94% | 1008.9 hPa | 0 mm | - | 139 W/m² | - |
| 1777489633 | 8.89° C | 95% | 1008.9 hPa | 0 mm | - | 122 W/m² | - |
| 1777489339 | 8.89° C | 95% | 1009 hPa | 0 mm | - | 152 W/m² | - |
| 1777489033 | 8.89° C | 95% | 1008.8 hPa | 0 mm | - | 124 W/m² | - |
| 1777488738 | 8.89° C | 96% | 1009.1 hPa | 0 mm | - | 93 W/m² | - |
| 1777488432 | 8.89° C | 96% | 1009.4 hPa | 0 mm | - | 71 W/m² | - |
| 1777488139 | 8.89° C | 96% | 1009.1 hPa | 0 mm | - | 104 W/m² | - |
| 1777487833 | 8.89° C | 96% | 1009.1 hPa | 0.25 mm | - | 115 W/m² | - |
* Rain latest hour (hover to see other rain measurements)
** Current wind speed in m/s (hover to see current wind gust speed)